Temp
-18 -18 -18 -20 -21 -21 -20 -20 -20 -20 -20 -20 -20 -19 -17 -13 -13 -12 -11 -10 -9 -9 -9 -9 -8 -9 -11 -9 -9 -8 -9 -9 -9 -8 -8 -8 -8 -8 -8 -8 -8 -8 -8 -8
-19 -19 -18 -19 -19 -19 -21 -21 -21 -20 -20 -21 -20 -20 -19 -18 -13 -13 -11 -10 -10 -10 -9 -9 -9 -9 -9 -10 -9 -9 -9 -9 -9 -9 -8 -8 -8 -8 -8 -8 -8 -8 -8 -8
-18 -19 -20 -19 -19 -19 -19 -19 -20 -20 -21 -20 -21 -21 -20 -19 -15 -13 -13 -11 -10 -10 -10 -9 -9 -9 -9 -8 -9 -10 -10 -10 -10 -10 -9 -9 -9 -9 -9 -9 -9 -8 -9 -9
-18 -19 -18 -19 -19 -19 -18 -19 -19 -19 -21 -21 -20 -20 -20 -18 -18 -14 -12 -11 -10 -10 -10 -9 -9 -9 -9 -9 -9 -9 -9 -9 -9 -9 -10 -9 -9 -9 -10 -10 -10 -10 -9 -9
-18 -18 -18 -18 -19 -19 -18 -19 -19 -19 -21 -21 -21 -21 -20 -19 -18 -16 -12 -10 -10 -10 -10 -10 -8 -9 -9 -9 -9 -9 -10 -9 -8 -10 -9 -9 -9 -10 -10 -10 -10 -10 -10 -10
-17 -18 -18 -18 -18 -19 -19 -19 -19 -20 -21 -21 -21 -21 -20 -19 -19 -13 -11 -11 -11 -11 -11 -10 -9 -9 -9 -9 -9 -10 -10 -10 -9 -9 -9 -10 -10 -10 -10 -10 -10 -10 -11 -10
-18 -18 -18 -18 -19 -19 -19 -19 -19 -20 -20 -19 -21 -21 -20 -19 -18 -15 -12 -12 -11 -12 -11 -10 -9 -9 -9 -9 -9 -10 -10 -10 -9 -9 -10 -10 -10 -10 -10 -10 -11 -11 -10 -10
-18 -18 -19 -19 -19 -19 -19 -20 -19 -20 -19 -19 -20 -20 -20 -18 -18 -17 -16 -13 -12 -13 -12 -11 -10 -9 -9 -9 -9 -10 -10 -10 -10 -10 -10 -10 -10 -10 -11 -11 -11 -10 -10 -10
-17 -18 -18 -19 -19 -19 -19 -19 -20 -20 -19 -20 -20 -20 -20 -19 -18 -18 -17 -16 -14 -13 -12 -11 -10 -10 -9 -10 -10 -10 -10 -10 -10 -10 -11 -10 -10 -11 -12 -11 -10 -10 -10 -10
-17 -17 -18 -18 -19 -19 -19 -20 -19 -19 -19 -20 -20 -19 -19 -19 -19 -18 -16 -16 -15 -13 -12 -11 -10 -10 -9 -9 -10 -10 -10 -10 -11 -10 -10 -11 -11 -11 -11 -10 -10 -10 -10 -10
-18 -17 -18 -18 -18 -19 -19 -19 -19 -19 -19 -19 -20 -19 -19 -19 -18 -18 -17 -15 -13 -13 -13 -12 -11 -10 -8 -9 -11 -11 -11 -11 -11 -11 -11 -11 -11 -11 -11 -10 -10 -10 -10 -10
-18 -18 -18 -18 -18 -18 -19 -19 -19 -19 -19 -19 -20 -19 -19 -18 -18 -18 -16 -14 -13 -13 -15 -14 -11 -9 -7 -10 -11 -11 -11 -11 -11 -11 -11 -12 -11 -11 -11 -11 -10 -10 -10 -10
-18 -18 -18 -18 -18 -19 -19 -19 -19 -19 -19 -19 -19 -18 -18 -18 -18 -18 -16 -15 -14 -13 -15 -14 -12 -10 -10 -12 -11 -11 -11 -11 -11 -11 -12 -11 -11 -11 -11 -10 -10 -10 -10 -10
-18 -18 -18 -18 -18 -19 -19 -19 -19 -19 -19 -19 -19 -18 -19 -18 -16 -18 -17 -17 -15 -14 -14 -14 -11 -10 -11 -11 -11 -11 -11 -12 -12 -11 -12 -11 -11 -11 -10 -10 -10 -10 -10 -11
-18 -18 -18 -18 -18 -18 -18 -19 -19 -19 -19 -19 -20 -19 -18 -18 -17 -18 -17 -17 -16 -14 -14 -12 -11 -11 -12 -12 -12 -12 -12 -12 -12 -12 -12 -12 -11 -11 -11 -10 -10 -11 -11 -11
-18 -18 -18 -17 -18 -18 -18 -19 -19 -19 -19 -19 -19 -19 -18 -17 -18 -17 -17 -16 -15 -15 -13 -11 -12 -13 -13 -13 -12 -12 -12 -13 -13 -13 -12 -12 -11 -11 -11 -11 -11 -11 -11 -11
-18 -18 -18 -18 -18 -18 -18 -19 -19 -19 -19 -20 -19 -19 -18 -18 -17 -16 -15 -16 -16 -14 -12 -12 -13 -13 -13 -13 -13 -13 -13 -13 -13 -12 -12 -12 -11 -11 -11 -11 -11 -11 -11 -12
-18 -18 -18 -18 -18 -18 -18 -18 -19 -19 -19 -20 -19 -18 -18 -18 -16 -14 -13 -13 -13 -13 -13 -13 -14 -13 -14 -13 -13 -13 -13 -13 -12 -12 -12 -11 -11 -11 -11 -11 -11 -12 -12 -12
-18 -18 -18 -18 -18 -18 -18 -19 -19 -19 -18 -18 -18 -18 -18 -18 -16 -15 -14 -14 -13 -13 -13 -13 -14 -14 -14 -14 -13 -13 -13 -13 -12 -12 -12 -12 -11 -11 -11 -12 -12 -12 -12 -13
-18 -18 -18 -18 -19 -18 -18 -18 -18 -18 -17 -17 -18 -18 -18 -17 -16 -15 -14 -14 -14 -14 -14 -14 -14 -14 -14 -14 -13 -13 -13 -13 -12 -12 -12 -12 -11 -11 -12 -13 -12 -13 -13 -13
-18 -18 -18 -18 -18 -18 -18 -18 -18 -17 -17 -16 -18 -18 -18 -16 -16 -16 -15 -15 -14 -14 -14 -14 -14 -14 -14 -14 -13 -13 -13 -12 -12 -12 -12 -12 -12 -12 -13 -13 -13 -13 -13 -13
-17 -17 -18 -18 -18 -17 -17 -17 -17 -17 -17 -17 -18 -18 -17 -17 -16 -16 -15 -15 -14 -14 -14 -14 -14 -13 -13 -13 -13 -13 -13 -13 -12 -12 -12 -12 -13 -13 -13 -13 -14 -14 -14 -14
-17 -17 -17 -18 -18 -18 -17 -18 -17 -17 -17 -18 -17 -17 -16 -16 -16 -16 -15 -14 -14 -14 -13 -13 -13 -13 -13 -13 -13 -13 -13 -12 -12 -12 -12 -13 -13 -13 -14 -14 -14 -14 -14 -14
-17 -17 -17 -18 -18 -17 -18 -18 -17 -17 -17 -17 -17 -16 -16 -16 -16 -15 -14 -14 -13 -13 -13 -13 -14 -14 -14 -13 -13 -13 -13 -13 -13 -13 -13 -14 -14 -14 -14 -14 -14 -14 -14 -14
-17 -17 -17 -17 -18 -17 -17 -17 -17 -17 -17 -17 -15 -16 -16 -16 -15 -15 -14 -14 -13 -14 -14 -14 -14 -14 -14 -13 -13 -13 -13 -13 -13 -14 -14 -14 -15 -15 -15 -15 -14 -14 -14 -14
-17 -17 -17 -17 -17 -17 -18 -17 -17 -17 -17 -16 -16 -16 -16 -15 -15 -15 -14 -14 -14 -13 -14 -14 -14 -14 -14 -14 -14 -14 -14 -14 -14 -14 -14 -15 -15 -15 -15 -14 -14 -14 -14 -14
Height
5644 5642 5643 5643 5645 5645 5645 5645 5644 5643 5644 5643 5644 5650 5657 5670 5686 5697 5712 5724 5738 5750 5761 5769 5779 5789 5798 5807 5817 5828 5833 5838 5843 5848 5852 5855 5858 5859 5861 5862 5863 5864 5864 5863
5637 5635 5635 5635 5634 5634 5635 5636 5635 5635 5636 5635 5634 5634 5645 5656 5670 5684 5699 5709 5725 5740 5751 5760 5769 5779 5787 5797 5809 5821 5825 5832 5837 5842 5846 5849 5852 5854 5856 5858 5858 5858 5859 5858
5631 5631 5629 5628 5628 5627 5626 5626 5626 5625 5627 5626 5625 5623 5629 5642 5654 5668 5681 5698 5714 5727 5739 5752 5761 5770 5781 5787 5801 5812 5817 5825 5830 5834 5841 5844 5847 5850 5852 5853 5854 5853 5853 5850
5626 5623 5621 5621 5620 5620 5618 5620 5617 5615 5617 5614 5620 5615 5621 5629 5640 5652 5669 5685 5707 5718 5730 5743 5753 5762 5769 5783 5791 5804 5806 5814 5816 5827 5832 5837 5841 5844 5844 5846 5847 5845 5843 5845
5624 5618 5615 5614 5614 5613 5613 5612 5610 5608 5607 5607 5606 5606 5610 5621 5629 5639 5657 5679 5697 5709 5723 5735 5745 5756 5764 5776 5785 5795 5804 5808 5808 5819 5825 5832 5839 5839 5840 5840 5839 5837 5837 5838
5618 5614 5611 5609 5608 5606 5606 5605 5603 5601 5601 5594 5594 5598 5600 5608 5621 5636 5651 5674 5690 5702 5713 5727 5736 5747 5759 5768 5777 5786 5796 5801 5808 5817 5823 5828 5831 5833 5834 5834 5834 5832 5833 5833
5612 5609 5606 5604 5603 5601 5600 5600 5598 5595 5591 5586 5589 5588 5592 5602 5619 5631 5648 5666 5680 5692 5704 5716 5728 5741 5753 5760 5766 5780 5789 5795 5804 5816 5821 5824 5827 5829 5828 5828 5829 5828 5829 5829
5607 5604 5600 5599 5597 5597 5595 5595 5593 5590 5588 5585 5585 5583 5586 5593 5612 5629 5637 5653 5669 5682 5694 5707 5721 5736 5747 5755 5763 5775 5784 5793 5802 5809 5816 5821 5820 5822 5823 5825 5823 5825 5825 5823
5602 5599 5596 5593 5591 5591 5590 5588 5589 5585 5583 5580 5581 5580 5583 5589 5599 5619 5631 5643 5655 5671 5688 5702 5718 5731 5741 5746 5761 5771 5781 5789 5800 5807 5811 5814 5817 5818 5821 5819 5820 5819 5819 5818
5597 5591 5589 5586 5584 5584 5584 5584 5583 5581 5579 5577 5577 5577 5582 5586 5594 5610 5623 5632 5649 5670 5685 5698 5711 5724 5728 5746 5757 5767 5777 5787 5797 5801 5805 5807 5811 5817 5814 5815 5815 5815 5815 5816
5590 5585 5584 5579 5578 5578 5578 5576 5577 5577 5577 5573 5572 5574 5574 5583 5596 5604 5615 5631 5647 5662 5675 5691 5705 5720 5717 5740 5753 5763 5773 5782 5790 5795 5798 5803 5811 5809 5810 5810 5811 5812 5812 5811
5584 5578 5576 5573 5570 5570 5571 5571 5571 5571 5574 5571 5570 5570 5572 5576 5590 5603 5615 5629 5644 5657 5672 5683 5697 5713 5679 5730 5748 5758 5769 5777 5783 5789 5795 5801 5803 5803 5804 5806 5807 5807 5807 5806
5578 5574 5569 5568 5568 5566 5565 5566 5566 5567 5567 5567 5565 5569 5568 5578 5588 5599 5613 5627 5641 5656 5671 5680 5688 5708 5719 5733 5743 5751 5762 5768 5778 5784 5791 5795 5796 5798 5799 5801 5802 5803 5802 5802
5572 5571 5566 5564 5562 5561 5560 5560 5561 5562 5562 5566 5563 5564 5566 5576 5573 5590 5614 5624 5637 5651 5666 5672 5689 5705 5718 5728 5737 5749 5758 5763 5772 5781 5786 5788 5790 5793 5795 5797 5798 5798 5797 5797
5572 5566 5562 5558 5555 5553 5553 5554 5555 5557 5559 5558 5561 5561 5563 5574 5569 5582 5599 5618 5632 5649 5657 5664 5689 5700 5713 5724 5735 5744 5753 5762 5770 5776 5778 5782 5786 5789 5790 5792 5793 5793 5792 5791
5570 5564 5559 5555 5551 5549 5548 5548 5549 5551 5552 5554 5556 5556 5562 5571 5572 5584 5597 5613 5632 5634 5648 5668 5686 5698 5711 5723 5733 5741 5750 5758 5764 5769 5774 5778 5781 5784 5786 5787 5787 5787 5786 5785
5567 5563 5558 5554 5550 5548 5547 5545 5546 5547 5548 5550 5553 5556 5556 5568 5575 5592 5606 5604 5619 5643 5653 5674 5685 5698 5710 5721 5731 5740 5747 5754 5760 5765 5769 5772 5776 5778 5780 5781 5782 5782 5782 5781
5566 5561 5557 5553 5550 5545 5547 5546 5546 5547 5548 5549 5550 5554 5557 5569 5582 5590 5593 5612 5633 5645 5659 5673 5685 5697 5709 5719 5728 5735 5743 5750 5755 5760 5764 5767 5771 5774 5776 5778 5778 5778 5778 5777
5566 5561 5557 5554 5548 5548 5547 5547 5548 5547 5550 5552 5552 5551 5557 5569 5581 5590 5589 5610 5631 5645 5660 5674 5686 5698 5708 5718 5725 5733 5741 5746 5752 5756 5760 5763 5767 5770 5771 5773 5774 5774 5772 5771
5567 5563 5560 5556 5553 5550 5549 5549 5551 5551 5554 5554 5550 5554 5561 5571 5582 5589 5596 5616 5633 5646 5660 5673 5685 5697 5707 5716 5724 5731 5738 5744 5749 5753 5757 5760 5763 5765 5767 5769 5769 5769 5767 5766
5568 5564 5562 5559 5556 5554 5553 5553 5552 5546 5556 5552 5552 5560 5569 5579 5591 5600 5611 5623 5636 5650 5663 5676 5686 5697 5706 5714 5721 5728 5735 5741 5746 5750 5754 5756 5759 5762 5763 5764 5764 5763 5762 5760
5567 5565 5563 5561 5559 5559 5558 5558 5556 5556 5553 5557 5562 5568 5577 5587 5596 5606 5618 5632 5643 5655 5666 5677 5687 5695 5703 5712 5721 5728 5734 5739 5744 5747 5751 5753 5756 5757 5759 5759 5759 5758 5757 5756
5567 5565 5564 5563 5563 5563 5562 5561 5560 5561 5559 5566 5570 5578 5585 5592 5603 5613 5625 5636 5646 5657 5668 5678 5687 5697 5705 5713 5720 5725 5732 5737 5741 5745 5748 5750 5752 5753 5754 5754 5754 5754 5753 5751
5566 5565 5564 5563 5564 5563 5562 5562 5562 5561 5565 5571 5579 5585 5592 5600 5609 5619 5630 5640 5650 5660 5670 5680 5688 5697 5706 5713 5719 5725 5730 5735 5738 5742 5744 5746 5748 5749 5750 5751 5751 5749 5748 5747
5566 5566 5565 5564 5564 5565 5564 5564 5565 5569 5573 5578 5584 5590 5598 5605 5616 5625 5634 5643 5652 5661 5671 5681 5690 5698 5706 5713 5719 5724 5728 5732 5736 5739 5741 5743 5744 5745 5746 5746 5746 5745 5744 5743
5569 5568 5567 5565 5566 5568 5569 5567 5571 5576 5580 5585 5588 5596 5604 5611 5620 5629 5638 5647 5657 5667 5676 5685 5692 5699 5705 5712 5717 5722 5726 5730 5733 5735 5737 5739 5741 5742 5742 5742 5741 5741 5740 5738
Wind_Speed
30 28 22 21 23 25 26 27 31 34 32 29 41 43 61 78 77 78 75 73 69 65 62 59 62 68 62 62 59 54 53 50 47 45 44 39 38 40 39 42 42 41 39 44
30 26 19 24 30 30 29 29 30 30 31 34 38 42 41 48 77 78 78 76 68 64 63 60 56 60 64 66 65 58 55 51 47 46 44 41 42 43 42 42 42 43 44 47
26 22 20 29 27 31 30 30 28 31 27 30 35 39 45 47 67 77 78 79 70 66 64 61 57 56 60 64 63 63 59 53 51 50 43 43 45 44 42 43 46 47 47 47
18 18 19 25 30 31 32 26 28 29 28 32 30 37 40 55 55 80 82 81 71 68 65 62 59 53 56 59 60 58 61 53 55 51 45 44 44 44 42 44 48 56 55 43
11 16 17 21 23 27 25 24 26 28 29 30 31 36 32 43 52 67 83 79 73 69 65 61 60 54 47 53 59 54 52 54 49 52 50 46 41 42 39 46 49 57 44 40
18 17 18 19 21 24 23 24 24 23 25 33 29 33 34 41 49 73 82 76 70 65 63 62 63 58 48 51 57 62 60 61 59 57 54 46 41 44 49 51 48 46 38 39
23 19 17 18 20 22 23 19 21 22 24 23 20 26 28 27 40 59 74 73 70 62 62 63 64 59 48 48 57 61 65 65 60 50 46 40 42 52 46 48 40 36 36 33
22 16 20 17 18 17 20 20 20 20 17 21 18 23 19 36 38 37 45 70 70 62 61 63 62 56 51 48 53 59 63 63 56 47 40 42 47 40 42 39 36 34 25 22
24 19 19 20 21 18 16 19 14 23 20 22 18 22 16 39 40 41 39 42 61 61 59 61 59 52 51 51 46 55 58 57 51 47 48 44 45 45 33 34 29 22 21 19
28 31 28 23 21 18 15 17 20 21 16 18 12 18 15 42 37 39 38 53 56 62 59 59 58 56 59 49 48 52 53 51 50 47 48 52 44 35 35 28 21 20 17 18
29 33 30 26 17 16 20 20 19 20 17 14 16 13 24 23 40 36 40 61 68 66 61 59 58 56 61 51 50 50 54 53 52 52 49 46 37 36 29 19 19 17 19 17
31 31 24 19 15 14 15 18 21 19 17 11 17 22 28 30 32 46 50 63 66 65 51 53 61 63 40 48 52 50 53 54 54 51 44 39 34 30 22 20 19 17 16 17
27 25 24 11 6 12 13 13 16 18 18 18 20 9 29 35 21 48 49 56 62 60 48 47 59 59 52 50 52 54 53 53 49 47 40 33 25 23 22 21 20 20 19 19
21 15 16 15 14 14 17 15 15 17 18 11 13 19 24 44 37 40 35 42 57 58 53 51 59 56 49 53 54 49 46 46 45 38 32 21 19 21 21 20 20 21 20 20
22 23 23 20 17 21 23 18 19 17 15 23 16 19 11 52 41 52 44 41 53 63 56 65 57 54 50 50 48 45 42 38 35 30 21 19 19 20 19 20 20 20 21 22
22 18 17 16 10 11 10 14 16 17 21 23 23 21 10 54 51 55 50 41 55 71 55 64 53 49 46 44 45 41 39 35 29 24 21 18 18 19 18 19 18 20 22 23
20 16 14 13 10 7 1 8 8 11 15 18 20 23 10 53 48 52 63 44 65 62 66 51 52 48 46 45 44 40 35 29 26 24 20 19 19 19 20 19 20 22 23 23
15 12 13 13 7 4 2 6 5 7 4 11 11 16 30 56 57 60 56 68 60 59 52 50 50 48 45 42 39 35 31 29 27 22 19 20 20 20 22 22 21 22 24 24
17 12 11 11 15 2 1 1 3 7 6 11 14 12 45 58 58 54 37 61 59 52 51 50 49 46 45 42 38 34 32 30 22 19 19 20 21 20 20 20 22 24 23 22
13 9 9 8 6 5 5 12 9 6 0 4 13 38 52 61 55 48 47 52 46 47 50 49 47 46 44 40 36 34 30 24 20 20 19 19 19 19 20 21 24 22 20 22
5 5 4 7 5 9 10 16 8 3 8 10 28 45 52 53 44 44 51 48 47 47 49 47 45 44 42 40 38 33 26 22 20 19 20 20 20 20 22 23 21 19 20 23
2 2 4 5 7 14 4 6 7 4 5 36 43 45 50 49 44 45 51 47 47 48 48 49 47 46 43 39 31 26 22 20 20 21 21 20 20 21 21 19 18 20 21 23
6 3 7 4 7 10 13 7 16 8 13 42 39 46 50 48 47 45 47 48 46 47 46 45 44 41 36 33 31 25 21 20 20 20 19 20 20 18 17 17 19 20 20 20
4 3 5 6 5 6 4 11 11 15 20 52 40 41 50 47 49 50 51 49 47 46 45 42 43 40 34 28 23 22 22 22 21 21 21 18 16 15 17 18 18 17 17 14
5 9 8 11 8 9 9 12 14 23 47 45 41 42 49 51 49 51 51 51 48 46 45 40 35 30 27 25 23 23 24 23 21 19 17 16 17 18 18 16 15 14 12 13
6 6 8 9 8 13 16 17 20 29 40 41 41 45 50 51 51 52 52 50 46 41 36 35 35 33 31 28 28 26 23 21 20 20 18 17 17 16 15 14 11 10 12 16
Wind_Direction
291 292 266 264 259 258 257 258 251 247 256 266 233 241 239 227 223 222 221 224 219 219 221 223 220 221 212 210 214 220 224 228 231 234 242 250 252 256 263 261 264 272 271 274
296 294 272 261 258 260 259 261 262 260 259 256 253 244 228 235 222 220 220 219 217 217 219 221 220 218 224 213 210 214 222 227 230 235 240 244 249 256 266 268 267 269 274 277
301 302 257 259 266 268 270 269 271 267 265 254 255 254 231 224 223 218 219 217 214 213 215 218 219 219 217 228 220 211 219 225 229 231 237 244 249 259 267 270 270 276 280 280
313 284 276 260 262 267 269 278 272 267 259 259 252 262 245 222 222 217 214 214 211 213 214 214 216 216 220 219 226 221 222 216 226 232 238 245 253 258 266 281 280 277 274 275
317 295 276 268 266 268 278 269 269 271 265 259 258 247 236 228 221 216 215 210 208 212 212 212 216 213 216 213 216 222 223 228 226 230 235 244 254 262 263 282 282 274 277 280
316 296 286 280 267 270 275 274 278 282 266 264 260 243 244 218 222 215 214 208 207 212 210 210 213 213 212 209 210 212 214 225 228 231 235 235 254 259 264 278 282 276 280 284
319 308 283 276 276 271 270 273 281 272 278 291 266 246 240 206 213 215 214 207 207 210 209 207 211 211 209 210 207 206 213 221 233 235 241 249 257 260 271 274 278 279 284 289
310 310 291 284 279 268 273 274 274 277 283 285 260 252 255 183 189 207 206 204 207 207 206 205 209 207 209 211 208 206 213 219 227 235 241 250 252 267 266 267 270 279 293 293
314 307 300 276 279 273 272 273 275 270 278 269 270 269 237 189 176 201 205 198 204 202 203 203 205 202 207 208 205 207 213 219 225 231 236 241 250 262 264 262 276 291 289 292
312 308 308 313 271 270 262 262 266 271 282 275 264 247 235 197 189 186 196 190 189 200 205 200 199 199 211 205 202 206 212 217 224 227 234 241 253 256 254 268 279 283 284 282
314 310 313 310 290 252 258 265 263 265 262 287 270 219 203 210 195 188 188 192 194 195 202 197 194 196 214 201 200 206 209 214 219 227 236 242 244 247 257 266 275 278 277 288
303 301 309 307 281 253 253 252 252 260 253 265 258 270 192 191 195 196 187 191 192 192 191 196 192 193 207 194 196 205 207 215 221 226 231 235 239 247 256 262 270 278 286 297
308 314 318 313 295 286 261 250 245 244 244 247 265 255 180 167 172 188 182 190 190 195 184 193 193 192 195 191 200 203 208 215 220 221 226 231 239 252 259 262 271 279 289 299
321 318 317 312 253 230 237 245 240 234 243 233 257 254 196 173 164 176 184 188 189 179 186 195 194 192 186 189 197 202 204 209 215 219 225 234 248 255 260 264 269 280 291 298
320 324 322 308 288 255 262 251 238 235 226 226 200 242 220 173 160 165 171 184 188 175 188 201 189 190 188 189 193 197 202 209 215 221 229 242 251 254 260 264 271 282 293 296
343 330 332 337 312 295 276 257 242 236 217 227 216 226 215 172 160 164 169 173 184 175 187 197 186 186 188 189 193 199 206 211 216 227 239 251 252 255 264 266 280 293 293 297
337 329 341 350 334 321 322 226 244 217 209 212 210 221 231 174 154 170 181 173 181 183 195 184 185 187 190 191 196 202 209 215 227 238 248 255 257 260 267 273 286 291 293 296
339 322 341 342 334 278 262 289 198 204 184 221 236 224 182 177 172 169 194 196 183 189 190 181 185 188 191 195 201 207 214 225 232 242 248 254 262 265 267 274 282 285 289 295
356 352 356 14 46 145 261 53 109 139 192 216 208 221 167 169 179 188 183 169 178 181 181 181 184 189 195 199 206 214 221 228 234 239 245 256 259 264 267 274 276 280 287 295
350 24 25 37 57 96 129 100 91 93 328 190 257 167 163 170 174 187 171 172 173 175 177 178 180 188 196 203 207 212 218 220 227 237 247 253 259 265 267 268 272 279 286 285
13 11 29 48 93 82 74 111 140 350 137 79 157 161 166 165 163 171 174 166 165 170 174 174 174 180 188 195 200 205 206 214 225 234 243 249 256 260 262 265 274 279 279 284
323 107 110 117 148 121 83 109 24 124 66 159 151 162 160 155 159 164 167 164 162 164 166 169 175 183 186 192 198 200 207 215 223 231 238 245 249 256 261 268 271 274 280 291
1 268 245 220 147 141 152 160 107 177 183 160 147 156 156 155 157 156 164 163 161 163 168 174 178 180 184 187 192 196 208 214 220 228 236 240 246 252 256 259 270 280 291 299
22 157 148 156 139 151 125 147 157 166 164 151 152 156 157 157 156 157 162 165 162 164 169 173 177 179 184 189 195 204 202 211 220 227 231 235 238 246 260 270 279 287 294 300
61 158 138 143 119 161 138 143 142 155 152 154 153 164 162 156 159 160 164 167 168 170 172 175 175 175 181 189 194 200 211 216 218 215 217 228 240 252 263 275 279 285 292 306
80 96 195 167 137 140 152 132 139 158 170 166 162 161 163 159 161 163 164 167 169 172 168 170 175 181 184 189 195 202 203 200 203 215 228 239 252 260 266 270 272 287 304 315